sat.trackr.live / text

‹ back to catalog

STARLINK-2657

NORAD 48655 · 2021-044T

PAYLOAD ACTIVE UNKNOWN

§ Identity

Operator
Country
US
Launch date
2021-05-26
Launch site
AFETR
Launch vehicle
Mass (kg)
RCS (m²)

Purposes: comms

External: N2YO · Heavens-Above · Gunter

§ Orbital elements

Epoch: 2026-05-25T03:13:20.311104Z

Period
94.01 min
Inclination
53.1584°
Eccentricity
0.0001333
Mean motion
15.31705589 rev/d
Perigee alt
469.8 km
Apogee alt
471.6 km
Semi-major
6,848.9 km
B*
6.2585e-5
RAAN
118.4426°
Arg perigee
108.0723°
Mean anomaly
252.0424°
Rev number
27,553

§ Raw data

STARLINK-26571 48655U 21044T   26145.13426286  .00001578  00000+0  62585-4 0  99992 48655  53.1584 118.4426 0001333 108.0723 252.0424 15.31705589275538

JSON: /api/v1/satellites/48655 · /tle

For live sub-satellite position, see the globe view (requires WebGL).

§ Visibility from observer

Set your observer location to see the next 7 days of passes ≥ 10°. The values pass through the URL so the page stays shareable.

No JS? Fill the form by hand. The geolocation button needs JavaScript.